Wichita Falls, TX

2:40 PM CDT on July 26, 2017 (GMT -0500)
Wichita Falls

Weather History for KCWC - August, 2014

Change the Weather History Date:

Wednesday, August 27, 2014

  Actual Average (KSPS) Record (KSPS)
Temperature  
Mean Temperature 86 °F -  
Max Temperature 99 °F 92 °F 109 °F (2011)
Min Temperature 73 °F 70 °F 59 °F (1962)
Cooling Degree Days 20    
Growing Degree Days 36 (Base 50)    
Moisture  
Dew Point 63 °F    
Average Humidity 48    
Maximum Humidity 79    
Minimum Humidity 26    
Precipitation  
Precipitation 0.00 in - - ()
Sea Level Pressure  
Sea Level Pressure 30.03 in    
Wind  
Wind Speed 6 mph (ESE)    
Max Wind Speed 14 mph    
Max Gust Speed 21 mph    
Visibility 10 miles    
Events      
Averages and records for this station are not official NWS values.
T = Trace of Precipitation, MM = Missing Value Source: NWS Daily Summary

Daily Weather History Graph

Daily Weather History Graph

Search for Another Location

Airport or City:

Trip Planner

Search our weather history database for the weather conditions in past years. The results will help you decide how hot, cold, wet, or windy it might be!

Date:

Astronomy

Aug. 27, 2014 Rise Set
Actual Time 7:04 AM CDT 8:06 PM CDT
Civil Twilight 6:38 AM CDT 8:31 PM CDT
Nautical Twilight 6:08 AM CDT 9:02 PM CDT
Astronomical Twilight 5:36 AM CDT 9:33 PM CDT
Moon 8:54 AM CDT (8/27) 9:07 PM CDT (8/27)
Length of Visible Light 13h 53m
Length of Day
13h 01m
Waxing Crescent, 4% of the Moon is Illuminated
Aug 27
Waxing Crescent
Sep 2
First Quarter
Sep 8
Full
Sep 15
Last Quarter
Sep 24
New

Hourly Weather History & Observations

Time (CDT) Temp. Heat Index Dew Point Humidity Pressure Visibility Wind Dir Wind Speed Gust Speed Precip Events Conditions
12:15 AM 82.4 °F 84.1 °F 64.6 °F 55% 30.05 in 10.0 mi East 5.8 mph - N/A   Clear
12:35 AM 81.5 °F 83.1 °F 64.6 °F 56% 30.05 in 10.0 mi East 6.9 mph - N/A   Clear
12:55 AM 80.8 °F 82.5 °F 64.6 °F 58% 30.05 in 10.0 mi East 5.8 mph - N/A   Clear
1:15 AM 80.6 °F 82.3 °F 64.6 °F 58% 30.05 in 10.0 mi East 5.8 mph - N/A   Clear
1:35 AM 80.1 °F 81.8 °F 64.6 °F 59% 30.05 in 10.0 mi East 5.8 mph - N/A   Clear
1:55 AM 79.2 °F - 64.8 °F 61% 30.05 in 10.0 mi ESE 5.8 mph - N/A   Clear
2:15 AM 78.8 °F - 64.8 °F 62% 30.06 in 10.0 mi East 4.6 mph - N/A   Clear
2:35 AM 78.3 °F - 64.9 °F 63% 30.05 in 10.0 mi ESE 5.8 mph - N/A   Clear
2:55 AM 77.9 °F - 65.3 °F 65% 30.05 in 10.0 mi ESE 5.8 mph - N/A   Clear
3:15 AM 77.2 °F - 65.3 °F 67% 30.05 in 10.0 mi SE 5.8 mph - N/A   Clear
3:35 AM 77.0 °F - 65.3 °F 67% 30.05 in 10.0 mi ESE 4.6 mph - N/A   Clear
3:55 AM 76.5 °F - 65.3 °F 68% 30.05 in 10.0 mi Calm Calm - N/A   Clear
4:15 AM 75.9 °F - 65.5 °F 70% 30.05 in 10.0 mi ESE 4.6 mph - N/A   Clear
4:35 AM 75.7 °F - 65.5 °F 70% 30.05 in 10.0 mi East 4.6 mph - N/A   Clear
4:55 AM 75.2 °F - 65.7 °F 72% 30.04 in 10.0 mi ESE 4.6 mph - N/A   Clear
5:15 AM 75.4 °F - 65.8 °F 72% 30.04 in 10.0 mi SE 4.6 mph - N/A   Clear
5:35 AM 75.0 °F - 65.8 °F 73% 30.04 in 10.0 mi ESE 5.8 mph - N/A   Clear
5:55 AM 75.2 °F - 66.0 °F 73% 30.04 in 10.0 mi SE 3.5 mph - N/A   Clear
6:15 AM 74.3 °F - 65.7 °F 74% 30.05 in 10.0 mi Calm Calm - N/A   Clear
6:35 AM 74.3 °F - 65.8 °F 75% 30.05 in 10.0 mi East 3.5 mph - N/A   Clear
6:55 AM 73.4 °F - 66.2 °F 78% 30.07 in 10.0 mi East 5.8 mph - N/A   Clear
7:15 AM 73.4 °F - 66.4 °F 79% 30.07 in 10.0 mi East 3.5 mph - N/A   Clear
7:35 AM 74.3 °F - 66.6 °F 77% 30.08 in 10.0 mi ESE 5.8 mph - N/A   Clear
7:55 AM 75.2 °F - 66.6 °F 74% 30.08 in 10.0 mi SE 4.6 mph - N/A   Clear
8:15 AM 76.3 °F - 67.1 °F 73% 30.08 in 10.0 mi SE 4.6 mph - N/A   Clear
8:35 AM 78.4 °F - 67.1 °F 68% 30.08 in 10.0 mi ESE 5.8 mph - N/A   Clear
8:55 AM 80.6 °F 82.9 °F 67.1 °F 63% 30.09 in 10.0 mi SE 5.8 mph - N/A   Clear
9:15 AM 82.4 °F 85.0 °F 67.1 °F 60% 30.09 in 10.0 mi SE 4.6 mph - N/A   Clear
9:35 AM 83.8 °F 86.5 °F 67.1 °F 57% 30.09 in 10.0 mi SE 5.8 mph - N/A   Clear
9:55 AM 85.8 °F 88.2 °F 66.6 °F 52% 30.09 in 10.0 mi SSE 6.9 mph - N/A   Clear
10:15 AM 86.7 °F 89.0 °F 66.2 °F 50% 30.09 in 10.0 mi South 5.8 mph - N/A   Clear
10:35 AM 88.7 °F 90.8 °F 65.5 °F 46% 30.09 in 10.0 mi SE 6.9 mph - N/A   Clear
10:55 AM 89.8 °F 91.4 °F 64.8 °F 43% 30.09 in 10.0 mi SSE 4.6 mph - N/A   Clear
11:15 AM 90.9 °F 92.3 °F 64.2 °F 41% 30.09 in 10.0 mi SE 9.2 mph - N/A   Clear
11:35 AM 91.6 °F 92.3 °F 62.8 °F 38% 30.09 in 10.0 mi ESE 4.6 mph - N/A   Clear
11:55 AM 91.8 °F 91.9 °F 61.5 °F 36% 30.09 in 10.0 mi SE 4.6 mph - N/A   Scattered Clouds
12:15 PM 93.6 °F 93.4 °F 60.4 °F 33% 30.08 in 10.0 mi East 5.8 mph - N/A   Scattered Clouds
12:35 PM 94.3 °F 94.5 °F 61.3 °F 33% 30.07 in 10.0 mi ENE 4.6 mph - N/A   Scattered Clouds
12:55 PM 95.4 °F 95.7 °F 60.8 °F 32% 30.07 in 10.0 mi East 4.6 mph - N/A   Scattered Clouds
1:15 PM 95.9 °F 96.6 °F 61.3 °F 32% 30.06 in 10.0 mi East 9.2 mph - N/A   Scattered Clouds
1:35 PM 95.5 °F 95.6 °F 60.1 °F 31% 30.05 in 10.0 mi ESE 13.8 mph - N/A   Scattered Clouds
1:55 PM 96.4 °F 96.5 °F 59.9 °F 30% 30.04 in 10.0 mi ESE 5.8 mph - N/A   Scattered Clouds
2:15 PM 97.3 °F 97.5 °F 60.1 °F 29% 30.04 in 10.0 mi East 5.8 mph 16.1 mph N/A   Scattered Clouds
2:35 PM 97.3 °F 97.5 °F 59.9 °F 29% 30.03 in 10.0 mi SE 5.8 mph - N/A   Scattered Clouds
2:55 PM 95.4 °F 94.9 °F 59.2 °F 30% 30.02 in 10.0 mi East 8.1 mph 16.1 mph N/A   Mostly Cloudy
3:15 PM 95.4 °F 94.2 °F 57.2 °F 28% 30.01 in 10.0 mi ESE 8.1 mph - N/A   Scattered Clouds
3:35 PM 96.3 °F 95.9 °F 58.8 °F 29% 30.00 in 10.0 mi SE 5.8 mph 17.3 mph N/A   Scattered Clouds
3:55 PM 97.2 °F 96.4 °F 58.5 °F 27% 29.99 in 10.0 mi East 9.2 mph 18.4 mph N/A   Scattered Clouds
4:15 PM 98.6 °F 98.5 °F 58.8 °F 27% 29.98 in 10.0 mi East 12.7 mph - N/A   Clear
4:35 PM 96.4 °F 95.3 °F 57.4 °F 27% 29.97 in 10.0 mi East 6.9 mph - N/A   Scattered Clouds
4:55 PM 98.6 °F 98.0 °F 58.3 °F 26% 29.97 in 10.0 mi ESE 12.7 mph - N/A   Scattered Clouds
5:15 PM 97.9 °F 97.4 °F 58.3 °F 27% 29.96 in 10.0 mi ESE 11.5 mph 20.7 mph N/A   Scattered Clouds
5:35 PM 97.9 °F 97.4 °F 58.3 °F 27% 29.96 in 10.0 mi East 11.5 mph 18.4 mph N/A   Scattered Clouds
5:55 PM 97.0 °F 96.1 °F 58.3 °F 27% 29.96 in 10.0 mi ESE 13.8 mph 19.6 mph N/A   Clear
6:15 PM 96.8 °F 95.8 °F 57.7 °F 27% 29.96 in 10.0 mi SE 13.8 mph 17.3 mph N/A   Scattered Clouds
6:35 PM 95.9 °F 94.9 °F 58.1 °F 28% 29.96 in 10.0 mi ESE 11.5 mph 18.4 mph N/A   Scattered Clouds
6:55 PM 95.0 °F 94.0 °F 58.1 °F 29% 29.96 in 10.0 mi SE 13.8 mph - N/A   Clear
7:15 PM 93.4 °F 92.2 °F 57.9 °F 30% 29.96 in 10.0 mi ESE 12.7 mph 17.3 mph N/A   Clear
7:35 PM 92.7 °F 91.5 °F 58.1 °F 31% 29.95 in 10.0 mi ESE 10.4 mph - N/A   Clear
7:55 PM 91.0 °F 90.2 °F 59.4 °F 34% 29.95 in 10.0 mi ESE 12.7 mph 17.3 mph N/A   Clear
8:15 PM 90.0 °F 89.7 °F 60.1 °F 37% 29.96 in 10.0 mi ESE 8.1 mph - N/A   Clear
8:35 PM 89.1 °F 88.8 °F 60.4 °F 38% 29.97 in 10.0 mi ESE 9.2 mph - N/A   Clear
8:55 PM 88.2 °F 87.6 °F 59.9 °F 38% 29.98 in 10.0 mi ESE 8.1 mph - N/A   Clear
9:15 PM 87.3 °F 87.0 °F 60.3 °F 40% 30.00 in 10.0 mi ESE 6.9 mph - N/A   Clear
9:35 PM 86.7 °F 86.8 °F 60.8 °F 42% 30.00 in 10.0 mi ESE 5.8 mph - N/A   Clear
9:55 PM 85.6 °F 85.7 °F 61.0 °F 43% 30.01 in 10.0 mi ESE 6.9 mph - N/A   Clear
10:15 PM 85.1 °F 85.4 °F 61.3 °F 45% 30.02 in 10.0 mi ESE 6.9 mph - N/A   Clear
10:35 PM 84.4 °F 84.8 °F 61.7 °F 46% 30.02 in 10.0 mi ESE 6.9 mph - N/A   Clear
10:55 PM 83.8 °F 84.5 °F 62.1 °F 48% 30.02 in 10.0 mi ESE 5.8 mph - N/A   Clear
11:15 PM 82.9 °F 83.8 °F 62.4 °F 50% 30.01 in 10.0 mi ESE 8.1 mph - N/A   Clear
11:35 PM 82.6 °F 83.6 °F 62.6 °F 51% 30.00 in 10.0 mi ESE 8.1 mph - N/A   Clear
11:55 PM 82.2 °F 83.3 °F 62.8 °F 52% 30.00 in 10.0 mi ESE 6.9 mph - N/A   Clear